GW3840 Weather Reports


Display with metric or nautical units.
time (UTC)temp
F
wind
direction
speed
MPH
gust
MPH
rain 1hr
in
rain 24hr
in
rain mn
in
humidity
%
barometer
mb
20260902191225 83 81 1.0 4.0 0.00 0.00 0.00 52 1014.5
20260902190720 83 37 1.0 6.0 0.00 0.00 0.00 48 1014.5
20260902190220 82 114 2.0 4.0 0.00 0.00 0.00 50 1014.6
20260902185716 82 9 4.0 6.0 0.00 0.00 0.00 50 1014.7
20260902185212 82 20 4.0 4.0 0.00 0.00 0.00 51 1014.6
20260902184707 82 59 2.0 6.0 0.00 0.00 0.00 53 1014.9
20260902184203 82 39 2.0 2.0 0.00 0.00 0.00 52 1014.7
20260902183658 82 94 1.0 7.0 0.00 0.00 0.00 51 1015.0
20260902183155 82 97 5.0 7.0 0.00 0.00 0.00 51 1014.7
20260902182650 82 208 1.0 3.0 0.00 0.00 0.00 50 1014.9
20260902182147 82 26 4.0 6.0 0.00 0.00 0.00 50 1015.0
20260902181643 82 167 1.0 3.0 0.00 0.00 0.00 50 1014.9
20260902181142 82 116 4.0 6.0 0.00 0.00 0.00 50 1014.7
20260902180641 83 210 3.0 6.0 0.00 0.00 0.00 50 1014.9
20260902180137 81 276 0.0 4.0 0.00 0.00 0.00 52 1014.7
20260902175638 82 143 3.0 6.0 0.00 0.00 0.00 52 1014.9
20260902175134 81 83 4.0 8.0 0.00 0.00 0.00 51 1015.0
20260902174630 82 69 3.0 6.0 0.00 0.00 0.00 47 1015.2
20260902174125 81 103 2.0 3.0 0.00 0.00 0.00 51 1015.0
20260902173620 82 111 6.0 9.0 0.00 0.00 0.00 50 1015.1
20260902173116 81 103 2.0 4.0 0.00 0.00 0.00 54 1015.2
20260902172615 81 38 2.0 3.0 0.00 0.00 0.00 51 1015.3
20260902172109 81 349 2.0 6.0 0.00 0.00 0.00 53 1015.4
20260902171605 80 162 2.0 3.0 0.00 0.00 0.00 54 1015.5
20260902171101 81 113 3.0 8.0 0.00 0.00 0.00 55 1015.3
20260902170556 83 26 1.0 4.0 0.00 0.00 0.00 52 1015.4
20260902170052 82 148 2.0 6.0 0.00 0.00 0.00 51 1015.1
20260902165551 80 140 0.0 4.0 0.00 0.00 0.00 55 1015.1
20260902165045 82 139 2.0 3.0 0.00 0.00 0.00 54 1015.0
20260902164540 79 88 2.0 4.0 0.00 0.00 0.00 58 1015.3
20260902164034 80 113 3.0 6.0 0.00 0.00 0.00 56 1014.9
20260902163530 78 323 2.0 6.0 0.00 0.00 0.00 59 1015.2
20260902163027 81 89 2.0 3.0 0.00 0.00 0.00 54 1015.2
20260902162521 79 77 4.0 7.0 0.00 0.00 0.00 58 1015.1
20260902162017 80 71 4.0 6.0 0.00 0.00 0.00 54 1015.1
20260902161511 77 145 2.0 4.0 0.00 0.00 0.00 59 1015.3
20260902161007 79 109 3.0 4.0 0.00 0.00 0.00 56 1015.3
20260902160503 81 104 4.0 6.0 0.00 0.00 0.00 56 1015.3
20260902160001 79 77 4.0 4.0 0.00 0.00 0.00 57 1015.1
20260902155456 78 146 3.0 7.0 0.00 0.00 0.00 57 1014.9
20260902154950 78 92 3.0 7.0 0.00 0.00 0.00 58 1014.9
20260902154446 78 52 2.0 4.0 0.00 0.00 0.00 61 1014.7
20260902153945 77 139 3.0 3.0 0.00 0.00 0.00 60 1015.0
20260902153438 75 74 1.0 2.0 0.00 0.00 0.00 66 1015.3
20260902152933 78 20 1.0 6.0 0.00 0.00 0.00 64 1015.2
20260902152424 77 105 2.0 2.0 0.00 0.00 0.00 67 1015.2
20260902151919 76 99 1.0 2.0 0.00 0.00 0.00 64 1015.3
20260902151415 77 19 3.0 3.0 0.00 0.00 0.00 64 1015.2
20260902150909 78 61 4.0 4.0 0.00 0.00 0.00 62 1015.2
20260902150405 78 199 1.0 2.0 0.00 0.00 0.00 60 1015.3
20260902145904 78 87 3.0 4.0 0.00 0.00 0.00 65 1015.3
20260902145400 77 93 2.0 2.0 0.00 0.00 0.00 66 1015.5
20260902144854 75 93 2.0 2.0 0.00 0.00 0.00 71 1015.6
20260902144351 75 17 2.0 2.0 0.00 0.00 0.00 72 1015.6
20260902143845 73 105 1.0 2.0 0.00 0.00 0.00 78 1015.7
20260902143339 74 277 1.0 1.0 0.00 0.00 0.00 76 1015.9
20260902142836 73 102 1.0 1.0 0.00 0.00 0.00 76 1015.8
20260902142332 72 104 1.0 2.0 0.00 0.00 0.00 80 1015.6
20260902141826 71 145 0.0 0.0 0.00 0.00 0.00 82 1015.6
20260902141322 72 79 1.0 1.0 0.00 0.00 0.00 81 1015.5
20260902140821 72 66 0.0 1.0 0.00 0.00 0.00 76 1015.5
20260902140317 72 187 0.0 1.0 0.00 0.00 0.00 75 1015.7
20260902135816 72 97 1.0 2.0 0.00 0.00 0.00 74 1015.4
20260902135312 72 54 0.0 1.0 0.00 0.00 0.00 76 1015.5
20260902134811 72 159 0.0 0.0 0.00 0.00 0.00 78 1015.4
20260902134306 72 211 0.0 1.0 0.00 0.00 0.00 76 1015.4
20260902133801 72 133 0.0 2.0 0.00 0.00 0.00 73 1015.3
20260902133301 72 188 0.0 0.0 0.00 0.00 0.00 78 1015.6
20260902132756 73 7 1.0 2.0 0.00 0.00 0.00 77 1015.5
20260902132252 73 120 0.0 0.0 0.00 0.00 0.00 79 1015.5
20260902131747 71 163 0.0 0.0 0.00 0.00 0.00 81 1015.6
20260902131243 71 43 0.0 1.0 0.00 0.00 0.00 82 1015.5
20260902130742 71 127 0.0 0.0 0.00 0.00 0.00 83 1015.5
20260902130239 71 33 1.0 1.0 0.00 0.00 0.00 82 1015.5
20260902125734 70 131 1.0 2.0 0.00 0.00 0.00 85 1015.4
20260902125230 71 58 1.0 2.0 0.00 0.00 0.00 85 1015.4
20260902124726 71 98 0.0 2.0 0.00 0.00 0.00 84 1015.3
20260902124221 71 176 0.0 0.0 0.00 0.00 0.00 85 1015.4
20260902123716 69 88 1.0 1.0 0.00 0.00 0.00 89 1015.5
20260902123207 67 143 0.0 0.0 0.00 0.00 0.00 95 1015.5
20260902122705 66 175 0.0 0.0 0.00 0.00 0.00 95 1015.4
20260902122202 65 164 0.0 0.0 0.00 0.00 0.00 95 1015.2
20260902121656 64 164 0.0 0.0 0.00 0.00 0.00 95 1015.2
20260902121151 63 166 0.0 0.0 0.00 0.00 0.00 95 1015.4
20260902120647 63 116 1.0 1.0 0.00 0.00 0.00 95 1015.2
20260902120143 63 104 0.0 1.0 0.00 0.00 0.00 96 1015.4
20260902115638 63 130 0.0 1.0 0.00 0.00 0.00 96 1015.5
20260902115134 63 155 0.0 0.0 0.00 0.00 0.00 96 1015.4
20260902114629 63 185 0.0 0.0 0.00 0.00 0.00 96 1015.3
20260902114129 63 186 0.0 0.0 0.00 0.00 0.00 96 1015.3
20260902113624 63 186 0.0 0.0 0.00 0.00 0.00 96 1015.5
20260902113119 63 186 0.0 0.0 0.00 0.00 0.00 96 1015.6
20260902112609 63 186 0.0 0.0 0.00 0.00 0.00 96 1015.3
20260902112106 63 172 0.0 0.0 0.00 0.00 0.00 96 1015.4
20260902111602 63 169 0.0 0.0 0.00 0.00 0.00 96 1015.5
20260902111057 62 158 0.0 0.0 0.00 0.00 0.00 96 1015.3
20260902110553 62 157 0.0 0.0 0.00 0.00 0.00 96 1015.2
20260902110049 63 189 0.0 0.0 0.00 0.00 0.00 96 1015.2
20260902105543 63 191 0.0 0.0 0.00 0.00 0.00 95 1015.1
20260902105043 64 203 0.0 0.0 0.00 0.00 0.00 95 1015.1
20260902104538 64 204 0.0 0.0 0.00 0.00 0.00 95 1015.2
20260902104033 64 204 0.0 0.0 0.00 0.00 0.00 94 1015.1
20260902103529 64 204 0.0 0.0 0.00 0.00 0.00 94 1015.2
20260902103024 64 205 0.0 0.0 0.00 0.00 0.00 93 1015.4
20260902102521 64 167 0.0 0.0 0.00 0.00 0.00 93 1015.4
20260902102017 65 185 0.0 0.0 0.00 0.00 0.00 93 1015.4
20260902101512 65 141 0.0 0.0 0.00 0.00 0.00 93 1015.3
20260902101010 65 220 0.0 0.0 0.00 0.00 0.00 93 1015.6
20260902100506 66 241 0.0 0.0 0.00 0.00 0.00 91 1015.6
20260902100000 65 187 0.0 0.0 0.00 0.00 0.00 91 1015.5
20260902095500 65 133 0.0 1.0 0.00 0.00 0.00 91 1015.5
20260902094959 65 172 0.0 0.0 0.00 0.00 0.00 92 1015.7
20260902094455 65 136 1.0 1.0 0.00 0.00 0.00 92 1015.7
20260902093955 65 181 0.0 0.0 0.00 0.00 0.00 93 1015.7
20260902093445 65 223 0.0 0.0 0.00 0.00 0.00 93 1015.8
20260902092944 64 201 0.0 0.0 0.00 0.00 0.00 93 1015.6
20260902092440 65 201 0.0 0.0 0.00 0.00 0.00 92 1015.7
20260902091940 65 184 0.0 0.0 0.00 0.00 0.00 91 1015.5
20260902091435 65 134 0.0 0.0 0.00 0.00 0.00 91 1015.5
20260902090932 66 184 0.0 0.0 0.00 0.00 0.00 89 1015.6
20260902090432 67 184 0.0 0.0 0.00 0.00 0.00 88 1015.7
20260902085930 67 65 1.0 1.0 0.00 0.00 0.00 87 1015.6
20260902085426 67 121 2.0 2.0 0.00 0.00 0.00 87 1015.6
20260902084921 67 136 1.0 1.0 0.00 0.00 0.00 87 1015.8
20260902084418 67 165 1.0 2.0 0.00 0.00 0.00 87 1015.6
20260902083913 67 193 0.0 0.0 0.00 0.00 0.00 89 1015.5
20260902083413 67 188 0.0 0.0 0.00 0.00 0.00 89 1015.5
20260902082908 67 188 0.0 0.0 0.00 0.00 0.00 89 1015.7
20260902082403 67 199 0.0 0.0 0.00 0.00 0.00 88 1015.4
20260902081900 66 174 0.0 0.0 0.00 0.00 0.00 90 1015.3
20260902081355 66 190 0.0 0.0 0.00 0.00 0.00 90 1015.1
20260902080850 66 192 0.0 0.0 0.00 0.00 0.00 89 1015.1
20260902080347 67 193 0.0 0.0 0.00 0.00 0.00 88 1015.1
20260902075846 67 189 0.0 0.0 0.00 0.00 0.00 87 1014.9
20260902075343 67 178 0.0 0.0 0.00 0.00 0.00 86 1014.5
20260902074843 68 178 0.0 0.0 0.00 0.00 0.00 85 1014.5
20260902074338 69 177 0.0 0.0 0.00 0.00 0.00 83 1014.5
20260902073833 70 154 0.0 0.0 0.00 0.00 0.00 81 1014.2
20260902073330 70 95 1.0 2.0 0.00 0.00 0.00 80 1014.3
20260902072825 70 20 1.0 2.0 0.00 0.00 0.00 80 1014.1
20260902072320 69 44 2.0 2.0 0.00 0.00 0.00 81 1014.3
20260902071817 69 189 0.0 0.0 0.00 0.00 0.00 81 1014.2
20260902071312 69 345 0.0 1.0 0.00 0.00 0.00 81 1014.1
20260902070808 69 330 0.0 1.0 0.00 0.00 0.00 82 1014.3
20260902070308 69 164 0.0 0.0 0.00 0.00 0.00 83 1014.1
20260902065807 69 143 0.0 0.0 0.00 0.00 0.00 82 1014.3
20260902065302 70 143 0.0 0.0 0.00 0.00 0.00 82 1014.3
20260902064757 69 179 0.0 1.0 0.00 0.00 0.00 81 1014.5
20260902064253 69 184 0.0 1.0 0.00 0.00 0.00 83 1014.5
20260902063749 70 152 0.0 0.0 0.00 0.00 0.00 84 1014.4
20260902063243 70 50 0.0 1.0 0.00 0.00 0.00 84 1014.6
20260902062743 70 47 1.0 2.0 0.00 0.00 0.00 85 1014.7
20260902062238 70 21 3.0 4.0 0.00 0.00 0.00 84 1014.9
20260902061737 69 281 1.0 2.0 0.00 0.00 0.00 86 1014.9
20260902061232 70 92 1.0 2.0 0.00 0.00 0.00 86 1014.9
20260902060730 70 96 1.0 2.0 0.00 0.00 0.00 86 1014.5
20260902060225 70 11 2.0 2.0 0.00 0.00 0.00 85 1014.7
20260902055720 70 56 1.0 2.0 0.00 0.00 0.00 85 1014.5
20260902055216 70 75 1.0 2.0 0.00 0.00 0.00 85 1014.6
20260902054711 70 3 0.0 2.0 0.00 0.00 0.00 87 1015.0
20260902054207 70 198 0.0 0.0 0.00 0.00 0.00 88 1015.1
20260902053702 70 276 1.0 2.0 0.00 0.00 0.00 88 1015.3
20260902053202 68 338 1.0 2.0 0.00 0.00 0.00 91 1015.4
20260902052701 67 190 0.0 0.0 0.00 0.00 0.00 91 1015.5
20260902052157 67 177 0.0 0.0 0.00 0.00 0.00 90 1015.5
20260902051656 67 163 0.0 0.0 0.00 0.00 0.00 90 1015.4
20260902051151 67 163 0.0 0.0 0.00 0.00 0.00 90 1015.5
20260902050651 67 160 0.0 0.0 0.00 0.00 0.00 89 1015.5
20260902050146 68 160 0.0 0.0 0.00 0.00 0.00 89 1015.5
20260902045641 68 159 0.0 0.0 0.00 0.00 0.00 89 1015.6
20260902045137 68 170 0.0 0.0 0.00 0.00 0.00 89 1015.7
20260902044632 68 154 0.0 0.0 0.00 0.00 0.00 88 1015.8
20260902044128 68 152 0.0 0.0 0.00 0.00 0.00 88 1016.0
20260902043623 68 143 0.0 0.0 0.00 0.00 0.00 88 1015.9
20260902043118 68 185 0.0 0.0 0.00 0.00 0.00 88 1015.9
20260902042617 68 186 0.0 0.0 0.00 0.00 0.00 87 1015.9
20260902042113 69 186 0.0 0.0 0.00 0.00 0.00 87 1016.0
20260902041612 69 186 0.0 0.0 0.00 0.00 0.00 87 1016.0
20260902041108 69 183 0.0 0.0 0.00 0.00 0.00 86 1015.8
20260902040607 69 225 0.0 0.0 0.00 0.00 0.00 86 1016.1
20260902035600 69 163 0.0 0.0 0.00 0.00 0.00 86 1015.9
20260902035056 69 190 0.0 0.0 0.00 0.00 0.00 86 1016.1
20260902034555 69 186 0.0 0.0 0.00 0.00 0.00 85 1016.1
20260902034054 69 181 0.0 0.0 0.00 0.00 0.00 85 1015.9
20260902033554 69 181 0.0 0.0 0.00 0.00 0.00 84 1016.0
20260902033049 69 181 0.0 0.0 0.00 0.00 0.00 84 1016.0
20260902032548 69 180 0.0 0.0 0.00 0.00 0.00 83 1016.0
20260902032043 69 171 0.0 0.0 0.00 0.00 0.00 82 1015.9
20260902031537 69 168 0.0 0.0 0.00 0.00 0.00 82 1016.1
20260902031034 70 162 0.0 0.0 0.00 0.00 0.00 82 1015.9
20260902030534 70 217 0.0 0.0 0.00 0.00 0.00 81 1016.1
20260902030034 70 216 0.0 0.0 0.00 0.00 0.00 80 1016.1
20260902025528 70 216 0.0 0.0 0.00 0.00 0.00 80 1016.1
20260902025024 70 226 0.0 0.0 0.00 0.00 0.00 81 1016.0
20260902024519 69 190 0.0 0.0 0.00 0.00 0.00 80 1016.0
20260902024019 70 189 0.0 0.0 0.00 0.00 0.00 81 1015.9
20260902023510 70 189 0.0 0.0 0.00 0.00 0.00 80 1015.9
20260902023009 70 185 0.0 0.0 0.00 0.00 0.00 80 1015.7
20260902022504 70 139 0.0 0.0 0.00 0.00 0.00 80 1015.6
20260902022000 70 199 0.0 0.0 0.00 0.00 0.00 80 1015.7
20260902021455 70 200 0.0 0.0 0.00 0.00 0.00 79 1015.7
20260902020950 70 200 0.0 0.0 0.00 0.00 0.00 79 1015.5
20260902020446 71 200 0.0 0.0 0.00 0.00 0.00 78 1015.6
20260902015942 71 200 0.0 0.0 0.00 0.00 0.00 77 1015.6
20260902015437 71 200 0.0 0.0 0.00 0.00 0.00 77 1015.5
20260902014932 71 227 0.0 0.0 0.00 0.00 0.00 75 1015.5
20260902014429 71 200 0.0 0.0 0.00 0.00 0.00 80 1015.6
20260902013928 71 199 0.0 0.0 0.00 0.00 0.00 80 1015.7
20260902013424 72 199 0.0 0.0 0.00 0.00 0.00 79 1015.6
20260902012919 72 192 0.0 0.0 0.00 0.00 0.00 79 1015.7
20260902012414 72 192 0.0 0.0 0.00 0.00 0.00 78 1015.7
20260902011909 72 191 0.0 0.0 0.00 0.00 0.00 77 1015.6
20260902011404 72 172 0.0 0.0 0.00 0.00 0.00 76 1015.5
20260902010859 72 143 0.0 0.0 0.00 0.00 0.00 76 1015.5
20260902010353 72 212 0.0 0.0 0.00 0.00 0.00 75 1015.6
20260902005852 72 213 0.0 0.0 0.00 0.00 0.00 73 1015.5
20260902005346 72 211 0.0 0.0 0.00 0.00 0.00 73 1015.3
20260902004842 72 211 0.0 0.0 0.00 0.00 0.00 74 1015.2
20260902004336 72 208 0.0 0.0 0.00 0.00 0.00 72 1015.1
20260902003832 73 207 0.0 0.0 0.00 0.00 0.00 70 1015.1
20260902003327 73 207 0.0 0.0 0.00 0.00 0.00 71 1015.1
20260902002822 73 207 0.0 0.0 0.00 0.00 0.00 71 1015.0
20260902002321 74 209 0.0 0.0 0.00 0.00 0.00 71 1015.2
20260902001817 74 190 0.0 0.0 0.00 0.00 0.00 69 1015.2
20260902001312 74 190 0.0 0.0 0.00 0.00 0.00 68 1015.2
20260902000807 75 171 0.0 1.0 0.00 0.00 0.00 67 1015.2
20260902000307 75 167 0.0 0.0 0.00 0.00 0.00 65 1015.0
20260901235802 76 188 0.0 0.0 0.00 0.00 0.00 64 1015.5
20260901235257 76 238 0.0 1.0 0.00 0.00 0.00 63 1015.7
20260901234756 76 229 0.0 1.0 0.00 0.00 0.00 63 1015.6
20260901234246 76 236 0.0 1.0 0.00 0.00 0.00 62 1015.6
20260901233740 77 224 1.0 2.0 0.00 0.00 0.00 61 1015.7
20260901233237 77 227 0.0 0.0 0.00 0.00 0.00 61 1015.6
20260901232736 77 221 1.0 1.0 0.00 0.00 0.00 60 1015.5
20260901232232 77 318 1.0 1.0 0.00 0.00 0.00 59 1015.7
20260901231728 77 224 0.0 1.0 0.00 0.00 0.00 58 1015.7
20260901231224 78 233 1.0 2.0 0.00 0.00 0.00 58 1015.9
20260901230719 78 234 1.0 2.0 0.00 0.00 0.00 57 1015.8
20260901230213 78 241 2.0 2.0 0.00 0.00 0.00 56 1016.0
20260901225708 78 276 2.0 2.0 0.00 0.00 0.00 55 1016.0
20260901225203 78 269 2.0 3.0 0.00 0.00 0.00 54 1016.1
20260901224659 78 291 2.0 2.0 0.00 0.00 0.00 53 1016.1
20260901224155 78 264 2.0 2.0 0.00 0.00 0.00 52 1015.7
20260901223651 79 245 3.0 4.0 0.00 0.00 0.00 51 1016.1
20260901223146 79 263 2.0 3.0 0.00 0.00 0.00 51 1016.3
20260901222642 79 39 2.0 3.0 0.00 0.00 0.00 50 1016.2
20260901222138 79 303 2.0 3.0 0.00 0.00 0.00 51 1016.2
20260901221634 79 304 4.0 6.0 0.00 0.00 0.00 49 1016.4
20260901221129 80 283 2.0 3.0 0.00 0.00 0.00 50 1016.2
20260901220628 79 258 2.0 6.0 0.00 0.00 0.00 48 1016.2
20260901220127 80 297 3.0 4.0 0.00 0.00 0.00 48 1016.1
20260901215625 80 260 2.0 4.0 0.00 0.00 0.00 49 1016.2
20260901215120 80 246 1.0 6.0 0.00 0.00 0.00 48 1016.1
20260901214618 80 341 2.0 3.0 0.00 0.00 0.00 48 1016.0
20260901214112 80 251 2.0 3.0 0.00 0.00 0.00 47 1016.0
20260901213607 80 297 2.0 3.0 0.00 0.00 0.00 47 1016.2
20260901213101 80 254 2.0 4.0 0.00 0.00 0.00 46 1015.8
20260901212555 81 240 2.0 4.0 0.00 0.00 0.00 46 1015.8
20260901212052 80 282 4.0 7.0 0.00 0.00 0.00 46 1016.0
20260901211547 80 257 3.0 6.0 0.00 0.00 0.00 46 1016.2
20260901211044 80 233 3.0 4.0 0.00 0.00 0.00 47 1016.3
20260901210538 81 264 4.0 4.0 0.00 0.00 0.00 47 1016.1
20260901210035 81 255 2.0 4.0 0.00 0.00 0.00 47 1016.1
20260901205529 82 317 2.0 7.0 0.00 0.00 0.00 45 1016.1
20260901205024 82 327 3.0 4.0 0.00 0.00 0.00 46 1015.9
20260901204520 83 343 5.0 7.0 0.00 0.00 0.00 42 1016.0
20260901204015 83 280 2.0 6.0 0.00 0.00 0.00 43 1016.1
20260901203510 82 238 3.0 4.0 0.00 0.00 0.00 43 1016.0
20260901203004 81 325 2.0 2.0 0.00 0.00 0.00 47 1015.9
20260901202459 81 325 2.0 6.0 0.00 0.00 0.00 48 1016.0
20260901201955 82 352 4.0 6.0 0.00 0.00 0.00 47 1015.9
20260901201449 84 14 5.0 7.0 0.00 0.00 0.00 46 1015.9
20260901200943 83 346 1.0 3.0 0.00 0.00 0.00 49 1015.9
20260901200433 82 308 2.0 6.0 0.00 0.00 0.00 48 1016.0
20260901195932 83 21 0.0 3.0 0.00 0.00 0.00 48 1016.1
20260901195431 82 318 5.0 7.0 0.00 0.00 0.00 48 1015.9
20260901194926 82 4 4.0 4.0 0.00 0.00 0.00 48 1016.1
20260901194421 81 347 4.0 6.0 0.00 0.00 0.00 50 1016.1
20260901193917 81 337 3.0 6.0 0.00 0.00 0.00 48 1016.2
20260901193415 82 346 2.0 3.0 0.00 0.00 0.00 51 1016.3
20260901192910 81 276 2.0 8.0 0.00 0.00 0.00 47 1016.4
20260901192406 82 229 2.0 6.0 0.00 0.00 0.00 46 1016.3
20260901191902 82 353 2.0 3.0 0.00 0.00 0.00 49 1016.2